Location: Allie Creek
(37.5926°N, 89.8526°W)
Time: 12:59:42
(UTC+00:00)

Cosmos 2278 Rocket - Pass Details

Date: 26 September 2023
Orbit: 842 x 844 km, 71.0° (Epoch: 10 December)

Event Time Altitude Azimuth Distance (km) Brightness Sun altitude
Rises 01:46:32 0° 346° (NNW) 3,409 5.8 -23.2°
Reaches altitude 10° 01:49:13 10° 356° (N) 2,470 4.9 -23.7°
Enters shadow 01:53:29 33° 42° (NE) 1,397 3.1 -24.5°
